| time (UTC) | temp C | wind direction | speed KPH | gust KPH | rain 1hr cm | rain 24hr cm | rain mn cm | humidity % | barometer mb |
| 20260507160538 | 15 | 130 | 4.8 | 16.1 | 0.00 | 0.00 | 0.00 | 60 | 1015.3 |
| 20260507160053 | 15 | 171 | 6.4 | 16.1 | 0.00 | 0.00 | 0.00 | 55 | 1015.4 |
| 20260507155537 | 14 | 178 | 3.2 | 9.7 | 0.00 | 0.00 | 0.00 | 59 | 1015.5 |
| 20260507155037 | 14 | 111 | 1.6 | 14.5 | 0.00 | 0.00 | 0.00 | 55 | 1015.3 |
| 20260507154549 | 15 | 134 | 8.0 | 16.1 | 0.00 | 0.00 | 0.00 | 60 | 1015.6 |
| 20260507154037 | 15 | 178 | 4.8 | 17.7 | 0.00 | 0.00 | 0.00 | 57 | 1015.5 |
| 20260507153537 | 15 | 149 | 8.0 | 17.7 | 0.00 | 0.00 | 0.00 | 59 | 1015.6 |
| 20260507153058 | 15 | 192 | 4.8 | 17.7 | 0.00 | 0.00 | 0.00 | 59 | 1015.5 |
| 20260507152537 | 15 | 225 | 8.0 | 17.7 | 0.00 | 0.00 | 0.00 | 57 | 1015.5 |
| 20260507152038 | 15 | 140 | 4.8 | 17.7 | 0.00 | 0.00 | 0.00 | 59 | 1015.5 |
| 20260507151550 | 15 | 163 | 6.4 | 17.7 | 0.00 | 0.00 | 0.00 | 60 | 1015.5 |
| 20260507151037 | 15 | 143 | 6.4 | 14.5 | 0.00 | 0.00 | 0.00 | 60 | 1015.5 |
| 20260507150538 | 15 | 157 | 6.4 | 14.5 | 0.00 | 0.00 | 0.00 | 58 | 1015.6 |
| 20260507150049 | 15 | 214 | 6.4 | 12.9 | 0.00 | 0.00 | 0.00 | 60 | 1015.6 |
| 20260507145537 | 15 | 0 | 3.2 | 11.3 | 0.00 | 0.00 | 0.00 | 60 | 1015.7 |
| 20260507145037 | 15 | 185 | 4.8 | 12.9 | 0.00 | 0.00 | 0.00 | 52 | 1015.6 |
| 20260507144548 | 15 | 193 | 3.2 | 12.9 | 0.00 | 0.00 | 0.00 | 57 | 1015.7 |
| 20260507144039 | 15 | 186 | 1.6 | 12.9 | 0.00 | 0.00 | 0.00 | 56 | 1015.7 |
| 20260507143538 | 15 | 143 | 3.2 | 12.9 | 0.00 | 0.00 | 0.00 | 59 | 1015.7 |
| 20260507143050 | 15 | 185 | 4.8 | 14.5 | 0.00 | 0.00 | 0.00 | 58 | 1015.8 |
| 20260507142536 | 15 | 163 | 6.4 | 14.5 | 0.00 | 0.00 | 0.00 | 57 | 1015.8 |
| 20260507142036 | 15 | 0 | 1.6 | 11.3 | 0.00 | 0.00 | 0.00 | 58 | 1015.9 |
| 20260507141547 | 15 | 0 | 0.0 | 17.7 | 0.00 | 0.00 | 0.00 | 61 | 1015.9 |
| 20260507141036 | 14 | 179 | 6.4 | 17.7 | 0.00 | 0.00 | 0.00 | 58 | 1015.9 |
| 20260507140536 | 14 | 141 | 8.0 | 17.7 | 0.00 | 0.00 | 0.00 | 60 | 1016.0 |
| 20260507140053 | 15 | 134 | 9.7 | 17.7 | 0.00 | 0.00 | 0.00 | 60 | 1016.0 |
| 20260507135538 | 15 | 142 | 3.2 | 16.1 | 0.00 | 0.00 | 0.00 | 63 | 1016.1 |
| 20260507135037 | 14 | 152 | 8.0 | 16.1 | 0.00 | 0.00 | 0.00 | 58 | 1016.0 |
| 20260507134554 | 15 | 142 | 9.7 | 16.1 | 0.00 | 0.00 | 0.00 | 56 | 1016.1 |
| 20260507134037 | 15 | 121 | 6.4 | 14.5 | 0.00 | 0.00 | 0.00 | 59 | 1016.1 |
| 20260507133538 | 15 | 144 | 3.2 | 11.3 | 0.00 | 0.00 | 0.00 | 60 | 1016.1 |
| 20260507133052 | 14 | 106 | 4.8 | 12.9 | 0.00 | 0.00 | 0.00 | 59 | 1016.1 |
| 20260507132537 | 14 | 212 | 6.4 | 16.1 | 0.00 | 0.00 | 0.00 | 60 | 1016.1 |
| 20260507132041 | 14 | 161 | 8.0 | 16.1 | 0.00 | 0.00 | 0.00 | 59 | 1016.1 |
| 20260507131602 | 15 | 144 | 3.2 | 16.1 | 0.00 | 0.00 | 0.00 | 58 | 1016.2 |
| 20260507131036 | 15 | 0 | 1.6 | 14.5 | 0.00 | 0.00 | 0.00 | 61 | 1016.2 |
| 20260507130538 | 15 | 168 | 4.8 | 14.5 | 0.00 | 0.00 | 0.00 | 62 | 1016.2 |
| 20260507130105 | 14 | 142 | 1.6 | 16.1 | 0.00 | 0.00 | 0.00 | 59 | 1016.2 |
| 20260507125536 | 15 | 110 | 8.0 | 16.1 | 0.00 | 0.00 | 0.00 | 54 | 1016.2 |
| 20260507125037 | 16 | 138 | 6.4 | 16.1 | 0.00 | 0.00 | 0.00 | 54 | 1016.2 |
| 20260507124554 | 16 | 195 | 11.3 | 16.1 | 0.00 | 0.00 | 0.00 | 58 | 1016.2 |
| 20260507124038 | 16 | 114 | 3.2 | 12.9 | 0.00 | 0.00 | 0.00 | 58 | 1016.2 |
| 20260507123537 | 16 | 200 | 6.4 | 17.7 | 0.00 | 0.00 | 0.00 | 59 | 1016.3 |
| 20260507123046 | 15 | 136 | 8.0 | 17.7 | 0.00 | 0.00 | 0.00 | 57 | 1016.3 |
| 20260507122537 | 15 | 144 | 9.7 | 20.9 | 0.00 | 0.00 | 0.00 | 57 | 1016.3 |
| 20260507122038 | 15 | 126 | 8.0 | 20.9 | 0.00 | 0.00 | 0.00 | 61 | 1016.4 |
| 20260507121602 | 15 | 122 | 8.0 | 16.1 | 0.00 | 0.00 | 0.00 | 56 | 1016.4 |
| 20260507121037 | 15 | 132 | 4.8 | 14.5 | 0.00 | 0.00 | 0.00 | 60 | 1016.5 |
| 20260507120537 | 15 | 140 | 6.4 | 14.5 | 0.00 | 0.00 | 0.00 | 61 | 1016.6 |
| 20260507120100 | 15 | 132 | 3.2 | 14.5 | 0.00 | 0.00 | 0.00 | 62 | 1016.5 |
| 20260507115538 | 15 | 185 | 4.8 | 14.5 | 0.00 | 0.00 | 0.00 | 64 | 1016.6 |
| 20260507115037 | 15 | 132 | 0.0 | 12.9 | 0.00 | 0.00 | 0.00 | 65 | 1016.6 |
| 20260507114604 | 15 | 165 | 1.6 | 9.7 | 0.00 | 0.00 | 0.00 | 63 | 1016.6 |
| 20260507114037 | 14 | 201 | 3.2 | 17.7 | 0.00 | 0.00 | 0.00 | 62 | 1016.7 |
| 20260507113538 | 14 | 150 | 6.4 | 19.3 | 0.00 | 0.00 | 0.00 | 62 | 1016.6 |
| 20260507113051 | 15 | 174 | 8.0 | 19.3 | 0.00 | 0.00 | 0.00 | 61 | 1016.6 |
| 20260507112537 | 15 | 128 | 8.0 | 16.1 | 0.00 | 0.00 | 0.00 | 62 | 1016.7 |
| 20260507112037 | 15 | 163 | 8.0 | 16.1 | 0.00 | 0.00 | 0.00 | 63 | 1016.7 |
| 20260507111547 | 15 | 131 | 6.4 | 16.1 | 0.00 | 0.00 | 0.00 | 64 | 1016.7 |
| 20260507111038 | 15 | 0 | 4.8 | 19.3 | 0.00 | 0.00 | 0.00 | 62 | 1016.8 |
| 20260507110539 | 14 | 172 | 8.0 | 19.3 | 0.00 | 0.00 | 0.00 | 64 | 1017.0 |
| 20260507110048 | 14 | 188 | 3.2 | 14.5 | 0.00 | 0.00 | 0.00 | 64 | 1017.0 |
| 20260507105537 | 14 | 135 | 1.6 | 16.1 | 0.00 | 0.00 | 0.00 | 64 | 1017.0 |
| 20260507105041 | 13 | 157 | 8.0 | 17.7 | 0.00 | 0.00 | 0.00 | 64 | 1017.0 |
| 20260507104549 | 14 | 133 | 4.8 | 17.7 | 0.00 | 0.00 | 0.00 | 67 | 1017.0 |
| 20260507104038 | 14 | 147 | 4.8 | 17.7 | 0.00 | 0.00 | 0.00 | 64 | 1017.1 |
| 20260507103542 | 14 | 158 | 8.0 | 17.7 | 0.00 | 0.00 | 0.00 | 66 | 1017.1 |
| 20260507103051 | 13 | 153 | 9.7 | 17.7 | 0.00 | 0.00 | 0.00 | 68 | 1017.1 |
| 20260507102538 | 13 | 115 | 8.0 | 17.7 | 0.00 | 0.00 | 0.00 | 68 | 1017.2 |
| 20260507102038 | 13 | 148 | 8.0 | 16.1 | 0.00 | 0.00 | 0.00 | 70 | 1017.3 |
| 20260507101546 | 13 | 121 | 8.0 | 17.7 | 0.00 | 0.00 | 0.00 | 71 | 1017.3 |
| 20260507101037 | 13 | 145 | 9.7 | 17.7 | 0.00 | 0.00 | 0.00 | 72 | 1017.4 |
| 20260507100542 | 12 | 139 | 4.8 | 16.1 | 0.00 | 0.00 | 0.00 | 74 | 1017.4 |
| 20260507100048 | 12 | 145 | 9.7 | 17.7 | 0.00 | 0.00 | 0.00 | 75 | 1017.3 |
| 20260507095537 | 12 | 126 | 9.7 | 17.7 | 0.00 | 0.00 | 0.00 | 75 | 1017.3 |
| 20260507095038 | 11 | 134 | 4.8 | 19.3 | 0.00 | 0.00 | 0.00 | 75 | 1017.3 |
| 20260507094548 | 11 | 154 | 8.0 | 19.3 | 0.00 | 0.00 | 0.00 | 75 | 1017.3 |
| 20260507094038 | 11 | 115 | 9.7 | 17.7 | 0.00 | 0.00 | 0.00 | 77 | 1017.3 |
| 20260507093538 | 11 | 134 | 3.2 | 12.9 | 0.00 | 0.00 | 0.00 | 79 | 1017.3 |
| 20260507093055 | 11 | 149 | 4.8 | 12.9 | 0.00 | 0.00 | 0.00 | 78 | 1017.3 |
| 20260507092538 | 11 | 116 | 3.2 | 14.5 | 0.00 | 0.00 | 0.00 | 77 | 1017.2 |
| 20260507092037 | 11 | 126 | 8.0 | 14.5 | 0.00 | 0.00 | 0.00 | 78 | 1017.3 |
| 20260507091552 | 10 | 130 | 6.4 | 14.5 | 0.00 | 0.00 | 0.00 | 79 | 1017.3 |
| 20260507091038 | 10 | 171 | 6.4 | 17.7 | 0.00 | 0.00 | 0.00 | 79 | 1017.4 |
| 20260507090538 | 10 | 128 | 11.3 | 17.7 | 0.00 | 0.00 | 0.00 | 79 | 1017.3 |
| 20260507090047 | 10 | 135 | 8.0 | 14.5 | 0.00 | 0.00 | 0.00 | 79 | 1017.3 |
| 20260507085537 | 10 | 159 | 6.4 | 16.1 | 0.00 | 0.00 | 0.00 | 80 | 1017.3 |
| 20260507085038 | 10 | 159 | 8.0 | 16.1 | 0.00 | 0.00 | 0.00 | 80 | 1017.3 |
| 20260507084547 | 10 | 113 | 8.0 | 14.5 | 0.00 | 0.00 | 0.00 | 80 | 1017.3 |
| 20260507084036 | 10 | 128 | 8.0 | 14.5 | 0.00 | 0.00 | 0.00 | 81 | 1017.4 |
| 20260507083537 | 10 | 141 | 6.4 | 14.5 | 0.00 | 0.00 | 0.00 | 82 | 1017.4 |
| 20260507083050 | 9 | 163 | 4.8 | 12.9 | 0.00 | 0.00 | 0.00 | 83 | 1017.3 |
| 20260507082538 | 9 | 134 | 4.8 | 14.5 | 0.00 | 0.00 | 0.00 | 83 | 1017.3 |
| 20260507082037 | 9 | 136 | 4.8 | 14.5 | 0.00 | 0.00 | 0.00 | 83 | 1017.4 |
| 20260507081554 | 9 | 137 | 8.0 | 14.5 | 0.00 | 0.00 | 0.00 | 82 | 1017.3 |
| 20260507081038 | 9 | 142 | 9.7 | 14.5 | 0.00 | 0.00 | 0.00 | 83 | 1017.3 |
| 20260507080537 | 9 | 127 | 8.0 | 17.7 | 0.00 | 0.00 | 0.00 | 84 | 1017.3 |
| 20260507080057 | 8 | 184 | 4.8 | 17.7 | 0.00 | 0.00 | 0.00 | 84 | 1017.3 |
| 20260507075538 | 8 | 150 | 6.4 | 12.9 | 0.00 | 0.00 | 0.00 | 85 | 1017.3 |
| 20260507075038 | 8 | 137 | 4.8 | 16.1 | 0.00 | 0.00 | 0.00 | 86 | 1017.3 |
| 20260507074600 | 8 | 136 | 9.7 | 16.1 | 0.00 | 0.00 | 0.00 | 86 | 1017.3 |
| 20260507074037 | 8 | 136 | 8.0 | 16.1 | 0.00 | 0.00 | 0.00 | 86 | 1017.3 |
| 20260507073540 | 7 | 146 | 6.4 | 14.5 | 0.00 | 0.00 | 0.00 | 86 | 1017.2 |
| 20260507073046 | 7 | 167 | 4.8 | 19.3 | 0.00 | 0.00 | 0.00 | 86 | 1017.2 |
| 20260507072538 | 7 | 144 | 9.7 | 19.3 | 0.00 | 0.00 | 0.00 | 86 | 1017.2 |
| 20260507072036 | 7 | 129 | 11.3 | 19.3 | 0.00 | 0.00 | 0.00 | 87 | 1017.2 |
| 20260507071546 | 7 | 134 | 8.0 | 17.7 | 0.00 | 0.00 | 0.00 | 87 | 1017.2 |
| 20260507071038 | 7 | 140 | 11.3 | 17.7 | 0.00 | 0.00 | 0.00 | 87 | 1017.2 |
| 20260507070538 | 7 | 145 | 11.3 | 17.7 | 0.00 | 0.00 | 0.00 | 88 | 1017.2 |
| 20260507070046 | 7 | 131 | 8.0 | 16.1 | 0.00 | 0.00 | 0.00 | 88 | 1017.2 |
| 20260507065538 | 7 | 138 | 6.4 | 12.9 | 0.00 | 0.00 | 0.00 | 88 | 1017.2 |
| 20260507065037 | 7 | 140 | 4.8 | 12.9 | 0.00 | 0.00 | 0.00 | 89 | 1017.2 |
| 20260507064543 | 7 | 150 | 6.4 | 12.9 | 0.00 | 0.00 | 0.00 | 90 | 1017.1 |
| 20260507064041 | 6 | 181 | 6.4 | 12.9 | 0.00 | 0.00 | 0.00 | 90 | 1017.1 |
| 20260507063537 | 6 | 162 | 3.2 | 11.3 | 0.00 | 0.00 | 0.00 | 90 | 1017.1 |
| 20260507063048 | 6 | 145 | 4.8 | 11.3 | 0.00 | 0.00 | 0.00 | 91 | 1017.1 |
| 20260507062538 | 6 | 141 | 4.8 | 11.3 | 0.00 | 0.00 | 0.00 | 90 | 1017.0 |
| 20260507062040 | 6 | 153 | 3.2 | 11.3 | 0.00 | 0.00 | 0.00 | 91 | 1017.0 |
| 20260507061548 | 6 | 144 | 3.2 | 12.9 | 0.00 | 0.00 | 0.00 | 91 | 1017.0 |
| 20260507061035 | 6 | 167 | 4.8 | 12.9 | 0.00 | 0.00 | 0.00 | 91 | 1017.0 |
| 20260507060538 | 6 | 155 | 3.2 | 9.7 | 0.00 | 0.00 | 0.00 | 91 | 1017.0 |
| 20260507060049 | 6 | 0 | 3.2 | 12.9 | 0.00 | 0.00 | 0.00 | 91 | 1017.0 |
| 20260507055535 | 6 | 142 | 1.6 | 12.9 | 0.00 | 0.00 | 0.00 | 92 | 1016.9 |
| 20260507055038 | 6 | 164 | 1.6 | 9.7 | 0.00 | 0.00 | 0.00 | 92 | 1016.8 |
| 20260507054618 | 5 | 144 | 3.2 | 9.7 | 0.00 | 0.00 | 0.00 | 92 | 1016.7 |
| 20260507054039 | 5 | 119 | 3.2 | 12.9 | 0.00 | 0.00 | 0.00 | 92 | 1016.8 |
| 20260507053538 | 5 | 140 | 4.8 | 12.9 | 0.00 | 0.00 | 0.00 | 91 | 1016.8 |
| 20260507053049 | 5 | 148 | 4.8 | 11.3 | 0.00 | 0.00 | 0.00 | 92 | 1016.8 |
| 20260507052537 | 5 | 0 | 1.6 | 11.3 | 0.00 | 0.00 | 0.00 | 92 | 1016.8 |
| 20260507052038 | 5 | 125 | 3.2 | 11.3 | 0.00 | 0.00 | 0.00 | 92 | 1016.8 |
| 20260507051545 | 5 | 147 | 4.8 | 11.3 | 0.00 | 0.00 | 0.00 | 92 | 1016.8 |
| 20260507051038 | 5 | 124 | 3.2 | 11.3 | 0.00 | 0.00 | 0.00 | 92 | 1017.0 |
| 20260507050535 | 5 | 146 | 4.8 | 11.3 | 0.00 | 0.00 | 0.00 | 92 | 1017.0 |
| 20260507050056 | 5 | 116 | 3.2 | 11.3 | 0.00 | 0.00 | 0.00 | 91 | 1017.0 |
| 20260507045538 | 5 | 134 | 4.8 | 12.9 | 0.00 | 0.00 | 0.00 | 91 | 1017.0 |
| 20260507045038 | 5 | 133 | 8.0 | 12.9 | 0.00 | 0.00 | 0.00 | 91 | 1016.8 |
| 20260507044552 | 5 | 144 | 4.8 | 14.5 | 0.00 | 0.00 | 0.00 | 91 | 1016.8 |
| 20260507044040 | 5 | 143 | 6.4 | 14.5 | 0.00 | 0.00 | 0.00 | 91 | 1016.8 |
| 20260507043538 | 4 | 129 | 4.8 | 9.7 | 0.00 | 0.00 | 0.00 | 91 | 1016.8 |
| 20260507043047 | 4 | 129 | 4.8 | 9.7 | 0.00 | 0.00 | 0.00 | 91 | 1016.8 |
| 20260507042539 | 4 | 136 | 3.2 | 9.7 | 0.00 | 0.00 | 0.00 | 91 | 1016.7 |
| 20260507042038 | 4 | 123 | 4.8 | 11.3 | 0.00 | 0.00 | 0.00 | 91 | 1016.7 |
| 20260507041551 | 4 | 122 | 4.8 | 16.1 | 0.00 | 0.00 | 0.00 | 91 | 1016.7 |
| 20260507041038 | 4 | 117 | 6.4 | 16.1 | 0.00 | 0.00 | 0.00 | 91 | 1016.8 |
| 20260507040538 | 4 | 132 | 9.7 | 16.1 | 0.00 | 0.00 | 0.00 | 91 | 1016.7 |
| 20260507040047 | 4 | 138 | 4.8 | 9.7 | 0.00 | 0.00 | 0.00 | 91 | 1016.7 |
| 20260507035537 | 4 | 143 | 4.8 | 9.7 | 0.00 | 0.00 | 0.00 | 91 | 1016.7 |
| 20260507035038 | 4 | 135 | 3.2 | 8.0 | 0.00 | 0.00 | 0.00 | 91 | 1016.7 |
| 20260507034551 | 4 | 98 | 0.0 | 6.4 | 0.00 | 0.00 | 0.00 | 91 | 1016.7 |
| 20260507034037 | 4 | 0 | 0.0 | 6.4 | 0.00 | 0.00 | 0.00 | 91 | 1016.7 |
| 20260507033537 | 4 | 122 | 3.2 | 6.4 | 0.00 | 0.00 | 0.00 | 91 | 1016.7 |
| 20260507033053 | 4 | 120 | 3.2 | 6.4 | 0.00 | 0.00 | 0.00 | 91 | 1016.7 |
| 20260507032538 | 4 | 144 | 0.0 | 4.8 | 0.00 | 0.00 | 0.00 | 91 | 1016.7 |
| 20260507032037 | 4 | 0 | 0.0 | 6.4 | 0.00 | 0.00 | 0.00 | 91 | 1016.8 |
| 20260507031602 | 4 | 0 | 1.6 | 6.4 | 0.00 | 0.00 | 0.00 | 91 | 1016.8 |
| 20260507031037 | 4 | 135 | 3.2 | 6.4 | 0.00 | 0.00 | 0.00 | 91 | 1016.8 |
| 20260507030537 | 4 | 0 | 0.0 | 6.4 | 0.00 | 0.00 | 0.00 | 91 | 1017.0 |
| 20260507030054 | 4 | 126 | 1.6 | 6.4 | 0.00 | 0.00 | 0.00 | 91 | 1016.8 |
| 20260507025538 | 4 | 119 | 1.6 | 6.4 | 0.00 | 0.00 | 0.00 | 90 | 1016.8 |
| 20260507025037 | 4 | 130 | 3.2 | 4.8 | 0.00 | 0.00 | 0.00 | 91 | 1016.7 |
| 20260507024546 | 4 | 120 | 1.6 | 4.8 | 0.00 | 0.00 | 0.00 | 90 | 1016.7 |
| 20260507024037 | 4 | 115 | 1.6 | 4.8 | 0.00 | 0.00 | 0.00 | 90 | 1016.7 |
| 20260507023537 | 4 | 0 | 0.0 | 0.0 | 0.00 | 0.00 | 0.00 | 90 | 1016.6 |
| 20260507023044 | 4 | 0 | 0.0 | 0.0 | 0.00 | 0.00 | 0.00 | 90 | 1016.6 |
| 20260507022539 | 4 | 0 | 0.0 | 0.0 | 0.00 | 0.00 | 0.00 | 90 | 1016.6 |
| 20260507022038 | 4 | 0 | 0.0 | 4.8 | 0.00 | 0.00 | 0.00 | 90 | 1016.6 |
| 20260507021547 | 4 | 0 | 0.0 | 4.8 | 0.00 | 0.00 | 0.00 | 90 | 1016.6 |
| 20260507021037 | 4 | 109 | 1.6 | 4.8 | 0.00 | 0.00 | 0.00 | 90 | 1016.4 |
| 20260507020538 | 4 | 0 | 0.0 | 4.8 | 0.00 | 0.00 | 0.00 | 90 | 1016.5 |
| 20260507020047 | 4 | 0 | 0.0 | 4.8 | 0.00 | 0.00 | 0.00 | 90 | 1016.4 |
| 20260507015537 | 4 | 87 | 1.6 | 4.8 | 0.00 | 0.00 | 0.00 | 90 | 1016.5 |
| 20260507015038 | 4 | 93 | 0.0 | 4.8 | 0.00 | 0.00 | 0.00 | 90 | 1016.4 |
| 20260507014555 | 4 | 99 | 1.6 | 6.4 | 0.00 | 0.00 | 0.00 | 90 | 1016.5 |
| 20260507014036 | 4 | 112 | 1.6 | 6.4 | 0.00 | 0.00 | 0.00 | 90 | 1016.5 |
| 20260507013537 | 4 | 0 | 3.2 | 6.4 | 0.00 | 0.00 | 0.00 | 90 | 1016.6 |
| 20260507013047 | 4 | 89 | 1.6 | 4.8 | 0.00 | 0.00 | 0.00 | 90 | 1016.7 |
| 20260507012538 | 4 | 109 | 3.2 | 4.8 | 0.00 | 0.00 | 0.00 | 90 | 1016.7 |
| 20260507012037 | 4 | 106 | 3.2 | 4.8 | 0.00 | 0.00 | 0.00 | 90 | 1016.7 |
| 20260507011546 | 4 | 90 | 1.6 | 6.4 | 0.00 | 0.00 | 0.00 | 90 | 1016.7 |
| 20260507011034 | 4 | 111 | 1.6 | 6.4 | 0.00 | 0.00 | 0.00 | 90 | 1016.7 |
| 20260507010538 | 4 | 112 | 3.2 | 9.7 | 0.00 | 0.00 | 0.00 | 90 | 1016.8 |
| 20260507010046 | 4 | 130 | 3.2 | 9.7 | 0.00 | 0.00 | 0.00 | 90 | 1016.8 |
| 20260507005538 | 4 | 120 | 4.8 | 9.7 | 0.00 | 0.00 | 0.00 | 89 | 1016.8 |
| 20260507005037 | 4 | 125 | 4.8 | 9.7 | 0.00 | 0.00 | 0.00 | 90 | 1016.9 |
| 20260507004544 | 5 | 106 | 4.8 | 11.3 | 0.00 | 0.00 | 0.00 | 90 | 1016.8 |
| 20260507004038 | 5 | 112 | 4.8 | 11.3 | 0.00 | 0.00 | 0.00 | 90 | 1016.8 |
| 20260507003541 | 4 | 117 | 4.8 | 11.3 | 0.00 | 0.00 | 0.00 | 90 | 1016.9 |
| 20260507003053 | 4 | 121 | 4.8 | 11.3 | 0.00 | 0.00 | 0.00 | 90 | 1017.0 |
| 20260507002537 | 4 | 111 | 4.8 | 9.7 | 0.00 | 0.00 | 0.00 | 90 | 1017.0 |
| 20260507002044 | 4 | 124 | 4.8 | 9.7 | 0.00 | 0.00 | 0.00 | 90 | 1017.0 |
| 20260507001553 | 4 | 110 | 4.8 | 11.3 | 0.00 | 0.00 | 0.00 | 90 | 1017.0 |
| 20260507001037 | 4 | 127 | 4.8 | 11.3 | 0.00 | 0.00 | 0.00 | 90 | 1017.1 |
| 20260507000541 | 4 | 127 | 4.8 | 11.3 | 0.00 | 0.00 | 0.00 | 89 | 1017.1 |
| 20260507000048 | 4 | 123 | 6.4 | 11.3 | 0.00 | 0.00 | 0.00 | 89 | 1017.1 |
| 20260506235537 | 4 | 119 | 6.4 | 11.3 | 0.00 | 0.00 | 0.00 | 89 | 1017.1 |
| 20260506235037 | 4 | 129 | 6.4 | 12.9 | 0.00 | 0.00 | 0.00 | 89 | 1017.2 |
| 20260506234554 | 4 | 120 | 4.8 | 12.9 | 0.00 | 0.00 | 0.00 | 89 | 1017.2 |
| 20260506234038 | 4 | 133 | 4.8 | 12.9 | 0.00 | 0.00 | 0.00 | 89 | 1017.2 |
| 20260506233538 | 3 | 117 | 6.4 | 11.3 | 0.00 | 0.00 | 0.00 | 89 | 1017.2 |
| 20260506233102 | 4 | 141 | 4.8 | 11.3 | 0.00 | 0.00 | 0.00 | 88 | 1017.2 |
| 20260506232537 | 4 | 112 | 4.8 | 9.7 | 0.00 | 0.00 | 0.00 | 88 | 1017.1 |
| 20260506232037 | 4 | 123 | 4.8 | 6.4 | 0.00 | 0.00 | 0.00 | 88 | 1017.1 |
| 20260506231553 | 4 | 121 | 4.8 | 8.0 | 0.00 | 0.00 | 0.00 | 88 | 1017.1 |
| 20260506231037 | 4 | 121 | 3.2 | 8.0 | 0.00 | 0.00 | 0.00 | 88 | 1017.1 |
| 20260506230537 | 4 | 132 | 3.2 | 8.0 | 0.00 | 0.00 | 0.00 | 88 | 1017.1 |
| 20260506230053 | 4 | 139 | 3.2 | 6.4 | 0.00 | 0.00 | 0.00 | 88 | 1017.2 |
| 20260506225539 | 4 | 125 | 0.0 | 4.8 | 0.00 | 0.00 | 0.00 | 88 | 1017.2 |
| 20260506225039 | 4 | 0 | 1.6 | 4.8 | 0.00 | 0.00 | 0.00 | 88 | 1017.2 |
| 20260506224550 | 4 | 121 | 1.6 | 6.4 | 0.00 | 0.00 | 0.00 | 88 | 1017.1 |
| 20260506224037 | 4 | 92 | 1.6 | 6.4 | 0.00 | 0.00 | 0.00 | 88 | 1017.2 |
| 20260506223537 | 4 | 97 | 1.6 | 6.4 | 0.00 | 0.00 | 0.00 | 88 | 1017.1 |
| 20260506223050 | 4 | 111 | 3.2 | 6.4 | 0.00 | 0.00 | 0.00 | 88 | 1017.3 |
| 20260506222540 | 4 | 113 | 3.2 | 9.7 | 0.00 | 0.00 | 0.00 | 88 | 1017.1 |
| 20260506222038 | 4 | 115 | 4.8 | 9.7 | 0.00 | 0.00 | 0.00 | 88 | 1017.2 |
| 20260506221550 | 4 | 98 | 3.2 | 11.3 | 0.00 | 0.00 | 0.00 | 87 | 1017.3 |
| 20260506221037 | 4 | 117 | 3.2 | 11.3 | 0.00 | 0.00 | 0.00 | 87 | 1017.1 |
| 20260506220537 | 4 | 111 | 4.8 | 11.3 | 0.00 | 0.00 | 0.00 | 87 | 1017.0 |
| 20260506220044 | 4 | 126 | 4.8 | 11.3 | 0.00 | 0.00 | 0.00 | 87 | 1017.1 |
| 20260506215539 | 4 | 119 | 4.8 | 11.3 | 0.00 | 0.00 | 0.00 | 86 | 1017.0 |
| 20260506215037 | 4 | 113 | 4.8 | 11.3 | 0.00 | 0.00 | 0.00 | 86 | 1017.0 |
| 20260506214550 | 5 | 108 | 4.8 | 11.3 | 0.00 | 0.00 | 0.00 | 86 | 1017.0 |
| 20260506214036 | 5 | 113 | 4.8 | 9.7 | 0.00 | 0.00 | 0.00 | 86 | 1016.9 |
| 20260506213537 | 5 | 121 | 4.8 | 9.7 | 0.00 | 0.00 | 0.00 | 86 | 1016.9 |
| 20260506213105 | 5 | 137 | 4.8 | 9.7 | 0.00 | 0.00 | 0.00 | 85 | 1017.0 |
| 20260506212538 | 5 | 117 | 4.8 | 9.7 | 0.00 | 0.00 | 0.00 | 85 | 1017.0 |
| 20260506212038 | 5 | 123 | 4.8 | 9.7 | 0.00 | 0.00 | 0.00 | 85 | 1016.9 |
| 20260506211551 | 5 | 97 | 3.2 | 9.7 | 0.00 | 0.00 | 0.00 | 85 | 1016.9 |
| 20260506211038 | 5 | 122 | 3.2 | 9.7 | 0.00 | 0.00 | 0.00 | 85 | 1016.9 |
| 20260506210537 | 5 | 93 | 3.2 | 9.7 | 0.00 | 0.00 | 0.00 | 85 | 1016.8 |
| 20260506210054 | 5 | 99 | 3.2 | 9.7 | 0.00 | 0.00 | 0.00 | 84 | 1016.7 |
| 20260506205541 | 5 | 89 | 3.2 | 11.3 | 0.00 | 0.00 | 0.00 | 84 | 1016.7 |
| 20260506205037 | 5 | 119 | 4.8 | 12.9 | 0.00 | 0.00 | 0.00 | 84 | 1016.7 |
| 20260506204550 | 5 | 104 | 6.4 | 12.9 | 0.00 | 0.00 | 0.00 | 85 | 1016.6 |
| 20260506204038 | 5 | 121 | 4.8 | 12.9 | 0.00 | 0.00 | 0.00 | 84 | 1016.6 |
| 20260506203536 | 5 | 117 | 3.2 | 11.3 | 0.00 | 0.00 | 0.00 | 84 | 1016.5 |
| 20260506203046 | 6 | 129 | 4.8 | 11.3 | 0.00 | 0.00 | 0.00 | 84 | 1016.6 |
| 20260506202539 | 6 | 120 | 3.2 | 9.7 | 0.00 | 0.00 | 0.00 | 84 | 1016.6 |
| 20260506202036 | 6 | 139 | 4.8 | 12.9 | 0.00 | 0.00 | 0.00 | 84 | 1016.5 |
| 20260506201550 | 6 | 119 | 4.8 | 14.5 | 0.00 | 0.00 | 0.00 | 84 | 1016.6 |
| 20260506201035 | 6 | 113 | 6.4 | 14.5 | 0.00 | 0.00 | 0.00 | 83 | 1016.5 |
| 20260506200535 | 6 | 123 | 6.4 | 14.5 | 0.00 | 0.00 | 0.00 | 82 | 1016.3 |
| 20260506200051 | 6 | 122 | 6.4 | 14.5 | 0.00 | 0.00 | 0.00 | 82 | 1016.3 |
| 20260506195537 | 6 | 131 | 6.4 | 14.5 | 0.00 | 0.00 | 0.00 | 81 | 1016.2 |
| 20260506195037 | 6 | 130 | 4.8 | 8.0 | 0.00 | 0.00 | 0.00 | 80 | 1016.1 |
| 20260506194618 | 6 | 127 | 4.8 | 14.5 | 0.00 | 0.00 | 0.00 | 80 | 1016.1 |
| 20260506194036 | 6 | 130 | 6.4 | 14.5 | 0.00 | 0.00 | 0.00 | 80 | 1016.0 |
| 20260506193537 | 6 | 119 | 8.0 | 14.5 | 0.00 | 0.00 | 0.00 | 79 | 1016.0 |
| 20260506193102 | 7 | 126 | 6.4 | 14.5 | 0.00 | 0.00 | 0.00 | 78 | 1016.0 |
| 20260506192536 | 7 | 101 | 4.8 | 12.9 | 0.00 | 0.00 | 0.00 | 78 | 1016.0 |
| 20260506192037 | 7 | 88 | 4.8 | 12.9 | 0.00 | 0.00 | 0.00 | 77 | 1016.0 |
| 20260506191547 | 7 | 111 | 4.8 | 12.9 | 0.00 | 0.00 | 0.00 | 77 | 1015.9 |
| 20260506191036 | 7 | 127 | 6.4 | 12.9 | 0.00 | 0.00 | 0.00 | 77 | 1015.8 |
| 20260506190536 | 7 | 111 | 4.8 | 17.7 | 0.00 | 0.00 | 0.00 | 77 | 1015.9 |
| 20260506190057 | 7 | 111 | 8.0 | 17.7 | 0.00 | 0.00 | 0.00 | 76 | 1015.9 |
| 20260506185537 | 7 | 90 | 4.8 | 14.5 | 0.00 | 0.00 | 0.00 | 76 | 1015.9 |
| 20260506185037 | 8 | 82 | 4.8 | 14.5 | 0.00 | 0.00 | 0.00 | 76 | 1015.9 |
| 20260506184550 | 8 | 93 | 4.8 | 16.1 | 0.00 | 0.00 | 0.00 | 75 | 1015.9 |
| 20260506184037 | 8 | 117 | 9.7 | 16.1 | 0.00 | 0.00 | 0.00 | 74 | 1015.9 |
| 20260506183538 | 8 | 113 | 8.0 | 14.5 | 0.00 | 0.00 | 0.00 | 75 | 1015.8 |
| 20260506183051 | 8 | 95 | 6.4 | 12.9 | 0.00 | 0.00 | 0.00 | 75 | 1015.9 |
| 20260506182537 | 8 | 129 | 3.2 | 12.9 | 0.00 | 0.00 | 0.00 | 74 | 1016.1 |
| 20260506182037 | 8 | 73 | 6.4 | 14.5 | 0.00 | 0.00 | 0.00 | 74 | 1016.0 |
| 20260506181553 | 8 | 123 | 6.4 | 19.3 | 0.00 | 0.00 | 0.00 | 73 | 1016.0 |
| 20260506181038 | 8 | 141 | 4.8 | 19.3 | 0.00 | 0.00 | 0.00 | 74 | 1015.9 |
| 20260506180538 | 8 | 108 | 8.0 | 19.3 | 0.00 | 0.00 | 0.00 | 73 | 1015.9 |
| 20260506180104 | 8 | 134 | 9.7 | 16.1 | 0.00 | 0.00 | 0.00 | 72 | 1015.9 |
| 20260506175537 | 9 | 71 | 8.0 | 14.5 | 0.00 | 0.00 | 0.00 | 72 | 1015.8 |
| 20260506175038 | 9 | 88 | 8.0 | 14.5 | 0.00 | 0.00 | 0.00 | 72 | 1015.8 |
| 20260506174550 | 9 | 63 | 6.4 | 17.7 | 0.00 | 0.00 | 0.00 | 72 | 1015.7 |
| 20260506174037 | 9 | 84 | 4.8 | 17.7 | 0.00 | 0.00 | 0.00 | 72 | 1015.7 |
| 20260506173537 | 9 | 102 | 9.7 | 17.7 | 0.00 | 0.00 | 0.00 | 71 | 1015.6 |
| 20260506173049 | 9 | 64 | 6.4 | 17.7 | 0.00 | 0.00 | 0.00 | 71 | 1015.6 |
| 20260506172537 | 9 | 59 | 8.0 | 16.1 | 0.00 | 0.00 | 0.00 | 70 | 1015.6 |
| 20260506172038 | 10 | 83 | 6.4 | 17.7 | 0.00 | 0.00 | 0.00 | 70 | 1015.6 |
| 20260506171550 | 10 | 64 | 8.0 | 17.7 | 0.00 | 0.00 | 0.00 | 69 | 1015.6 |
| 20260506171038 | 10 | 112 | 9.7 | 17.7 | 0.00 | 0.00 | 0.00 | 68 | 1015.6 |
| 20260506170538 | 10 | 113 | 6.4 | 14.5 | 0.00 | 0.00 | 0.00 | 69 | 1015.5 |
| 20260506170057 | 10 | 82 | 4.8 | 14.5 | 0.00 | 0.00 | 0.00 | 68 | 1015.5 |
| 20260506165537 | 10 | 46 | 4.8 | 14.5 | 0.00 | 0.00 | 0.00 | 67 | 1015.6 |
| 20260506165039 | 10 | 131 | 6.4 | 14.5 | 0.00 | 0.00 | 0.00 | 68 | 1015.5 |
| 20260506164548 | 10 | 87 | 6.4 | 16.1 | 0.00 | 0.00 | 0.00 | 66 | 1015.5 |
| 20260506164040 | 11 | 96 | 9.7 | 16.1 | 0.00 | 0.00 | 0.00 | 66 | 1015.6 |
| 20260506163540 | 11 | 80 | 6.4 | 16.1 | 0.00 | 0.00 | 0.00 | 67 | 1015.5 |
| 20260506163106 | 11 | 67 | 8.0 | 14.5 | 0.00 | 0.00 | 0.00 | 67 | 1015.5 |
| 20260506162540 | 11 | 82 | 1.6 | 16.1 | 0.00 | 0.00 | 0.00 | 67 | 1015.5 |
| 20260506162041 | 11 | 75 | 6.4 | 16.1 | 0.00 | 0.00 | 0.00 | 65 | 1015.5 |
| 20260506161548 | 11 | 42 | 3.2 | 11.3 | 0.00 | 0.00 | 0.00 | 65 | 1015.5 |
| 20260506161040 | 11 | 105 | 3.2 | 12.9 | 0.00 | 0.00 | 0.00 | 66 | 1015.4 |